Location: Crescent
(42.8242°N, 73.7329°W)
Time: 20:43:59
(UTC+00:00)

SR - Pass Details

Date: 16 February 2026
Orbit: 573 x 848 km, 66.7° (Epoch: 6 March)

Event Time Altitude Azimuth Distance (km) Brightness Sun altitude
Rises 19:54:14 0° 313° (NW) 3,128 ? 23.3°
Reaches altitude 10° 19:57:08 10° 296° (WNW) 2,256 ? 23.0°
Maximum altitude 20:00:43 19° 252° (WSW) 1,761 ? 22.5°
Drops below altitude 10° 20:04:27 10° 208° (SSW) 2,362 ? 22.0°
Sets 20:07:35 0° 192° (SSW) 3,328 ? 21.6°
